Elk Grove Village, Illinois, United States (60007)
Lat: 42.00N, Lon: 87.97W
Wx Zone: ILZ014
Local Info
Past Weather Observations for Today

NOTE: This archive is for the closest National Weather Service station to Elk Grove Village. Information may differ from the station used for current weather conditions.

Click here for Long-term Archive

Time Weather Temperature Dewpoint Humidity Pressure Winds Precip Visibility
20:51
Overcast
Fog And Mist
66°F / 19°C 64°F / 18°C 94% 30.04 in
(1017 mb)
N 3.5 mph
(N 6 kph)
0.00 in
(0.00 mm)
3SM
19:51
Overcast
Light Rain
66°F / 19°C 64°F / 18°C 94% 30.04 in
(1017 mb)
N 6.9 mph
(N 11 kph)
0.00 in
(0.00 mm)
4SM
19:12
Overcast
Light Rain
66°F / 19°C 66°F / 19°C 100% 30.01 in
(1016 mb)
N 11.5 mph
(N 19 kph)
0.00 in
(0.00 mm)
3SM
18:57
Overcast
Fog And Mist
68°F / 20°C 66°F / 19°C 94% 30.01 in
(1016 mb)
N 4.6 mph
(N 7 kph)
0.00 in
(0.00 mm)
3SM
18:51
Overcast
Light Rain
68°F / 20°C 66°F / 19°C 94% 30.01 in
(1016 mb)
NNE 3.5 mph
(NNE 6 kph)
0.05 in
(1.27 mm)
2 1/2SM
18:38
Overcast
Light Rain
68°F / 20°C 66°F / 19°C 94% 30.01 in
(1016 mb)
Calm 0.05 in
(1.27 mm)
2SM
17:51
Overcast
Light Rain
68°F / 20°C 66°F / 19°C 94% 30.01 in
(1016 mb)
N 3.5 mph
(N 6 kph)
0.05 in
(1.27 mm)
1 3/4SM
17:26
Overcast
Light Rain
68°F / 20°C 66°F / 19°C 94% 30.01 in
(1016 mb)
Calm 0.03 in
(0.76 mm)
2 1/2SM
17:17
Overcast
Light Rain
70°F / 21°C 66°F / 19°C 88% 30.01 in
(1016 mb)
NE 3.5 mph
(NE 6 kph)
0.02 in
(0.51 mm)
2 1/2SM
16:51
Overcast
Light Rain
70°F / 21°C 66°F / 19°C 88% 30.01 in
(1016 mb)
NE 4.6 mph
(NE 7 kph)
0.02 in
(0.51 mm)
5SM
15:51
Overcast
Light Rain
70°F / 21°C 66°F / 19°C 88% 30.01 in
(1016 mb)
N 3.5 mph
(N 6 kph)
0.01 in
(0.25 mm)
8SM
14:51
Overcast
70°F / 21°C 66°F / 19°C 88% 30.01 in
(1016 mb)
NW 5.8 mph
(NW 9 kph)
- 9SM
14:07
Overcast
70°F / 21°C 66°F / 19°C 88% 30.01 in
(1016 mb)
W 5.8 mph
(W 9 kph)
- 9SM
13:51
Overcast
70°F / 21°C 66°F / 19°C 88% 30.01 in
(1016 mb)
WNW 4.6 mph
(WNW 7 kph)
- 9SM
13:42
Overcast
70°F / 21°C 66°F / 19°C 88% 30.01 in
(1016 mb)
W 4.6 mph
(W 7 kph)
- 9SM
12:51
Overcast
Fog And Mist
70°F / 21°C 66°F / 19°C 88% 30.01 in
(1016 mb)
SW 5.8 mph
(SW 9 kph)
0.00 in
(0.00 mm)
5SM
12:20
Overcast
Light Rain
68°F / 20°C 66°F / 19°C 94% 30.04 in
(1017 mb)
W 4.6 mph
(W 7 kph)
0.00 in
(0.00 mm)
6SM
11:51
Mostly Cloudy
Light Rain
66°F / 19°C 64°F / 18°C 94% 30.01 in
(1016 mb)
S 6.9 mph
(S 11 kph)
0.00 in
(0.00 mm)
5SM
11:36
Mostly Cloudy
Light Rain
66°F / 19°C 64°F / 18°C 94% 30.01 in
(1016 mb)
S 6.9 mph
(S 11 kph)
0.00 in
(0.00 mm)
5SM
11:12
Overcast
Light Rain
66°F / 19°C 64°F / 18°C 94% 30.04 in
(1017 mb)
S 10.4 mph
(S 17 kph)
0.00 in
(0.00 mm)
4SM
10:51
Overcast
Light Rain
66°F / 19°C 64°F / 18°C 94% 30.04 in
(1017 mb)
SE 8.1 mph
(SE 13 kph)
0.00 in
(0.00 mm)
7SM
09:51
Overcast
66°F / 19°C 64°F / 18°C 94% 30.04 in
(1017 mb)
ESE 5.8 mph
(ESE 9 kph)
0.00 in
(0.00 mm)
7SM
08:51
Overcast
Fog And Mist
64°F / 18°C 63°F / 17°C 94% 30.04 in
(1017 mb)
E 9.2 mph
(E 15 kph)
0.03 in
(0.76 mm)
6SM
07:51
Overcast
Rain
64°F / 18°C 63°F / 17°C 94% 30.06 in
(1018 mb)
NE 9.2 mph
(NE 15 kph)
0.02 in
(0.51 mm)
5SM
06:51
Overcast
Light Rain
64°F / 18°C 63°F / 17°C 94% 30.06 in
(1018 mb)
ESE 8.1 mph
(ESE 13 kph)
0.07 in
(1.78 mm)
5SM
06:35
Overcast
Light Rain
64°F / 18°C 63°F / 17°C 94% 30.06 in
(1018 mb)
SE 8.1 mph
(SE 13 kph)
0.06 in
(1.52 mm)
6SM
05:51
Overcast
Light Rain
63°F / 17°C 63°F / 17°C 100% 30.04 in
(1017 mb)
SE 5.8 mph
(SE 9 kph)
0.23 in
(5.84 mm)
4SM
04:51
Overcast
Rain
63°F / 17°C 63°F / 17°C 100% 30.04 in
(1017 mb)
SE 9.2 mph
(SE 15 kph)
0.15 in
(3.81 mm)
3SM
03:51
Overcast
Light Rain
64°F / 18°C 61°F / 16°C 88% 30.04 in
(1017 mb)
S 8.1 mph
(S 13 kph)
0.10 in
(2.54 mm)
6SM
02:51
Overcast
Light Rain
64°F / 18°C 61°F / 16°C 88% 30.04 in
(1017 mb)
S 8.1 mph
(S 13 kph)
0.01 in
(0.25 mm)
10SM
01:51
Overcast
66°F / 19°C 61°F / 16°C 83% 30.04 in
(1017 mb)
SSE 5.8 mph
(SSE 9 kph)
- 10SM
00:51
Overcast
68°F / 20°C 63°F / 17°C 83% 30.06 in
(1018 mb)
SE 4.6 mph
(SE 7 kph)
- 10SM
Time Weather Temperature Dewpoint Humidity Pressure Winds Precip Visibility


Weather for websites

WeatherForYou.com, LLC is not responsible for any damages or problems caused by this service. Current weather conditions are obtained from the closest station including government and personal stations which may have varying degrees of accuracy. Weather forecasts are derived from the NOAA NDFD. Like all things, this site belongs to Jesus Christ... He just trusts us to maintain it. If you have any questions or comments email webmaster@weatherforyou.com

Copyright © 2015, WeatherForYou.com LLC. All rights reserved.